Simultaneous Nadir Overpasses (SNOs) Predictions

Prediction of SNOs between AQUA and METOP-B Satellite Orbit:

Table of predicted SNOs for the next 14.0 days since TLE Epoch: 11/29/2025
Index Date (AQUA) Time (AQUA) Lat,Lon (AQUA) SZA (AQUA ) Date (METOP-B) Time (METOP-B) Lat,Lon (METOP-B) SZA (METOP-B ) Distance(km) Time Diff (sec)
1 12/01/2025 01:21:50 78.12, 160.85 99.89 12/01/2025 01:21:30 78.10, 160.80 99.87 2.13 20
2 12/01/2025 02:11:07 -78.14, -31.58 80.09 12/01/2025 02:12:10 -78.13, -31.72 80.10 3.43 63
3 12/03/2025 12:30:20 78.13, -6.25 100.26 12/03/2025 12:29:18 78.10, -6.14 100.24 3.38 62
4 12/03/2025 13:19:37 -78.15, 161.33 79.72 12/03/2025 13:19:58 -78.13, 161.35 79.73 1.52 21
5 12/06/2025 00:28:05 -78.11, -5.53 79.44 12/06/2025 00:27:46 -78.13, -5.61 79.42 3.31 19
6 12/06/2025 01:17:24 78.17, 161.86 100.62 12/06/2025 01:18:26 78.18, 161.97 100.64 2.97 62
7 12/08/2025 11:36:33 -78.11,-172.57 79.17 12/08/2025 11:35:34 -78.13,-172.59 79.16 2.23 59
8 12/08/2025 12:25:51 78.17, -5.19 100.89 12/08/2025 12:26:13 78.17, -5.02 100.90 3.78 22
9 12/10/2025 23:34:18 78.17,-172.21 101.11 12/10/2025 23:34:01 78.16,-172.05 101.11 3.78 17



Historial Predications of SNOs between AQUA and METOP-B
